sat.trackr.live / text

‹ back to catalog

STARLINK-31473

NORAD 59339 · 2024-057V

PAYLOAD ACTIVE UNKNOWN

§ Identity

Operator
Country
US
Launch date
2024-03-25
Launch site
AFETR
Launch vehicle
Mass (kg)
RCS (m²)

Purposes: comms

External: N2YO · Heavens-Above · Gunter

§ Orbital elements

Epoch: 2026-05-25T05:04:30.499104Z

Period
94.27 min
Inclination
42.9996°
Eccentricity
0.0000729
Mean motion
15.27579926 rev/d
Perigee alt
482.5 km
Apogee alt
483.5 km
Semi-major
6,861.2 km
B*
1.6398e-5
RAAN
114.7841°
Arg perigee
269.9532°
Mean anomaly
90.1236°
Rev number
12,154

§ Raw data

STARLINK-314731 59339U 24057V   26145.21146411  .00000189  00000+0  16398-4 0  99932 59339  42.9996 114.7841 0000729 269.9532  90.1236 15.27579926121547

JSON: /api/v1/satellites/59339 · /tle

For live sub-satellite position, see the globe view (requires WebGL).

§ Visibility from observer

Set your observer location to see the next 7 days of passes ≥ 10°. The values pass through the URL so the page stays shareable.

No JS? Fill the form by hand. The geolocation button needs JavaScript.